This demonstration page uses our WeatherBlox Daily Observations layout. Learn more.

Hourly Observations for October 29, 2020

Temp ( °F °C ) Dew Point ( °F °C ) Humidity (%) Winds ( mph kmh ) Pressure ( in mb ) Visibility ( mi km ) Precip ( " mm )
12:54 am 00:54 Clear 42 5.6 34 1.1 73 73 N 21 33 30.05 1018 10 16.0934 0 0
1:54 am 01:54 Clear 41 5 33 0.6 73 73 N 21 33 30.05 1018 10 16.0934 0 0
2:54 am 02:54 Clear 40 4.4 32 0 73 73 NNE 15 24 30.11 1020 10 16.0934 0 0
3:54 am 03:54 Clear 38 3.3 30 -1.1 73 73 N 16 26 30.11 1020 10 16.0934 0 0
4:54 am 04:54 Clear 36 2.2 30 -1.1 79 79 N 16 26 30.1 1019 10 16.0934 0 0
5:54 am 05:54 Clear 35 1.7 28 -2.2 76 76 N 23 37 30.12 1020 10 16.0934 0 0
6:54 am 06:54 Clear 33 0.6 25 -3.9 72 72 N 16 26 30.16 1021 10 16.0934 0 0
7:54 am 07:54 Clear 31 -0.6 22 -5.6 69 69 NNE 9 15 30.18 1022 10 16.0934 0 0
8:54 am 08:54 Sunny 33 0.6 23 -5 66 66 N 13 20 30.2 1023 10 16.0934 0 0
9:54 am 09:54 Sunny 36 2.2 24 -4.4 62 62 NNE 14 22 30.22 1023 10 16.0934 0 0
10:54 am 10:54 Sunny 39 3.9 25 -3.9 57 57 NNE 12 19 30.22 1023 10 16.0934 0 0
11:54 am 11:54 Sunny 43 6.1 24 -4.4 47 47 NE 14 22 30.21 1023 10 16.0934 0 0
12:54 pm 12:54 Sunny 45 7.2 23 -5 42 42 NNE 13 20 30.2 1023 10 16.0934 0 0
1:54 pm 13:54 Sunny 48 8.9 23 -5 37 37 N 10 17 30.17 1022 10 16.0934 0 0
2:54 pm 14:54 Sunny 49 9.4 23 -5 36 36 N 9 15 30.16 1021 10 16.0934 0 0
3:54 pm 15:54 Sunny 50 10 23 -5 35 35 N 12 19 30.16 1021 10 16.0934 0 0
4:54 pm 16:54 Sunny 50 10 23 -5 35 35 VRB 3 6 30.16 1021 10 16.0934 0 0
5:54 pm 17:54 Sunny 48 8.9 23 -5 37 37 NNE 3 6 30.16 1022 10 16.0934 0 0
6:54 pm 18:54 Clear 43 6.1 23 -5 45 45 E 5 7 30.16 1022 10 16.0934 0 0
7:54 pm 19:54 Clear 41 5 23 -5 49 49 Calm 30.18 1022 10 16.0934 0 0
8:54 pm 20:54 Clear 38 3.3 24 -4.4 57 57 SSE 3 6 30.18 1022 10 16.0934 0 0
9:54 pm 21:54 Clear 36 2.2 23 -5 59 59 Calm 30.18 1022 10 16.0934 0 0
10:54 pm 22:54 Clear 38 3.3 24 -4.4 57 57 Calm 30.19 1022 10 16.0934 0 0
11:54 pm 23:54 Clear 35 1.7 23 -5 61 61 Calm 30.18 1022 10 16.0934 0 0

Powered by AerisWeather